Regional Weather Roundup
Issued by NWS Wilmington, NC

Home | Current Version | Previous Version | Text Only | Print | Product List | Glossary On
Versions: 1 2 3 4 5 6 7 8 9 10 11 12 13 14 15 16 17 18 19 20 21 22 23 24 25 26 27 28 29 30 31 32 33 34 35 36 37 38 39 40 41 42 43 44 45 46 47 48 49 50
000
ASUS42 KILM 170313
RWRILM
RWRILM
REGIONAL HOURLY WEATHER ROUNDUP
NATIONAL WEATHER SERVICE WILMINGTON NC
1000 PM EST TUE JAN 16 2018

NOTE: "FAIR" INDICATES FEW OR NO CLOUDS BELOW 12,000 FEET WITH NO
SIGNIFICANT WEATHER AND/OR OBSTRUCTIONS TO VISIBILITY.

...............WFO WILMINGTON COUNTY WARNING AREA...............

......COASTAL NC AND SC COUNTIES......

CITY           SKY/WX    TMP DP  RH WIND       PRES   REMARKS
WILMINGTON     FAIR      36  31  82 CALM      30.36S
N MYRTLE BEACH FAIR      35  33  92 CALM      30.35S
MYRTLE BEACH   FAIR      36  33  89 CALM      30.36F

......INLAND NC AND SC COUNTIES.......

CITY           SKY/WX    TMP DP  RH WIND       PRES   REMARKS
LUMBERTON      FAIR      31  29  92 CALM      30.33F
ELIZABETHTOWN  NOT AVBL
WHITEVILLE     FAIR      35  30  81 CALM      30.34F
FLORENCE       FAIR      36  29  75 CALM      30.34F
DARLINGTON     FAIR      36  28  73 CALM      30.33F
KINGSTREE      FAIR      34  32  93 CALM      30.34F
HARTSVILLE     FAIR      36  27  69 E3        30.32S
BENNETTSVILLE  FAIR      36  30  80 CALM      30.32F
CONWAY         FAIR      32  32 100 CALM      30.35F
GEORGETOWN     FAIR      34  32  93 CALM      30.35F
MARION         FAIR      34  30  86 SE3       30.35S

....................REST OF NORTH CAROLINA......................

.........EASTERN NC.........

CITY           SKY/WX    TMP DP  RH WIND       PRES   REMARKS
CAPE HATTERAS  FAIR      35  35 100 CALM      30.36S
JACKSONVILLE   FAIR      32  29  88 CALM      30.36S
MOREHEAD CITY  FAIR      36  33  89 CALM      30.35F
KENANSVILLE    FAIR      30  27  86 CALM      30.35S
NEW BERN       FAIR      34  30  85 CALM      30.36S
ELIZABETH CITY FOG       31  32 100 CALM      30.35S VSB 3/4

.........CENTRAL NC.........

CITY           SKY/WX    TMP DP  RH WIND       PRES   REMARKS
RALEIGH DURHAM CLOUDY    37  22  54 CALM      30.32F
ROCKY MOUNT    FAIR      30  27  88 CALM      30.34F
ROANOKE RAPIDS NOT AVBL
FAYETTEVILLE   FAIR      38  25  59 CALM      30.33F
HOFFMAN        FAIR      32  26  78 CALM      30.33F

.........WESTERN NC.........

CITY           SKY/WX    TMP DP  RH WIND       PRES   REMARKS
CHARLOTTE      MOCLDY    42  26  53 S6        30.29F
GREENSBORO     CLOUDY    37  24  59 CALM      30.28F
HICKORY        NOT AVBL
BOONE          NOT AVBL
ASHEVILLE      NOT AVBL

.....................REST OF SOUTH CAROLINA.....................

.........EASTERN SC.........

CITY           SKY/WX    TMP DP  RH WIND       PRES   REMARKS
CHARLESTON     MOCLDY    42  35  76 CALM      30.34F
BEAUFORT MCAS  FAIR      41  38  89 SE3       30.33F
HILTON HEAD    FAIR      37  36  93 CALM      30.35S

.........CENTRAL SC.........

CITY           SKY/WX    TMP DP  RH WIND       PRES   REMARKS
COLUMBIA       MOCLDY    42  34  73 CALM      30.31F
ORANGEBURG     FAIR      42  31  64 SE3       30.32F
SUMTER SHAW    MOCLDY    38  29  70 CALM      30.30F

.........WESTERN SC.........

CITY           SKY/WX    TMP DP  RH WIND       PRES   REMARKS
GREENVILLE     NOT AVBL
ROCK HILL      FAIR      40  25  55 S3        30.30S
ANDERSON       CLOUDY    44  32  62 W7        30.29F
CLEMSON        NOT AVBL
GREENWOOD      CLOUDY    42  32  67 CALM      30.30F


...................COASTAL AND OFFSHORE REPORTS..................

................LOCAL PIERS AND NC RESERVE................


STATION/POSITION TIME  SKY/WX   TEMP    WIND        PRES    VSBY
                                AIR SEA DIR/SP/G
                 (UTC)          (F)     (DEG/KT/KT) (MB)    (MI)
JOHNY MRCER PIER 0242            43 46  280/  5/  6 1027.8S
NC RESRV MASNBRO 0145            39        CALM     1026.0
OCEAN CREST PIER NOT AVBL
SPRINGMAID  PIER 0242                               1030.8F


................COASTAL AND OFFSHORE BUOYS................


STATION/POSITION TIME  SKY/WX   TEMP    WIND        PRES    VSBY
                                AIR SEA DIR/SP/G
                 (UTC)          (F)     (DEG/KT/KT) (MB)    (MI)
DIMNDSHOAL 41025 0250            48 67  340/  8/ 12 1027.9F
CAPE LOOKOUT     0300                    20/  3/  4 1027.9F
ONSLOW BAY 41036 NOT AVBL
ONSLOW BAY 41064 0208            52 59   30/  4/  6 1028.0S
ONSLOW BAY 41159 0230               59                N/A
WVE H/P(F/S)=  4/10 SWL H/P/D(F/S/D)=  2/110/11

MASNBO INL 41110 0229               47                N/A
WVE H/P(F/S)=  3/12 SWL H/P/D(F/S/D)=  2/130/12

WILM HARBR 41108 0230               46                N/A
WVE H/P(F/S)=  2/10 SWL H/P/D(F/S/D)=  2/130/11

27SE WRITB 41037 0208            52 63  350/  8/ 10 1027.7R
FRYING PAN 41013 0250            52 60  360/  6/  8 1027.7S
SUNST NRSH 41024 0208            43     340/  2/  4 1027.7F
CAPRS NRSH 41029 0208            43 48   20/  4/  8 1027.6S
EDISTO     41004 0250            56 69  350/  6/  8 1027.0F


..........OFFSHORE BUOYS BEYOND 100 NM OFFSHORE...........
.....IN A TRIANGLE---HAT TO BERMUDA TO BAHAMAS TO HAT.....


STATION/POSITION TIME  SKY/WX   TEMP    WIND        PRES    VSBY
                                AIR SEA DIR/SP/G
                 (UTC)          (F)     (DEG/KT/KT) (MB)    (MI)
150E HAT   41001 NOT AVBL
W BERMUDA  41048 0250            68 71   70/ 12/ 17 1025.1R
ATLANTIC S 41049 0250            75 76   80/  4/  6 1020.7S
WVE H/P(F/S)=  8/11 SWL H/P/D(F/S/D)=  8/100/11

E BAHAMAS  41046 0250            76 78   50/  8/ 12 1020.4F
NE BAHAMAS 41047 0250            59      40/ 10/ 16 1022.6R
WVE H/P(F/S)= 10/11 SWL H/P/D(F/S/D)= 10/ 40/11

120E CANVRL41010 NOT AVBL

END



USA.gov is the U.S. government's official web portal to all federal, state and local government web resources and services.